• In Moldova, Republic
  • List of Countries
  • For 7 days
  • Water Temperature
  • Satellite Maps
  • Weather Map
  • Weather Widgets
  • user-avatar
    Login

    Hourly Weather Batina

    Today, 23 April, Sunday

    Time Temperature Precipitation Wind Pressure Humidity
    00:00 +7°C° 0 mm 1 mps 672 mmHg 59%
    01:00 +7°C° 0 mm 1 mps 672 mmHg 60%
    02:00 +6°C° 0 mm 1 mps 672 mmHg 60%
    03:00 +6°C° 0 mm 1 mps 672 mmHg 60%
    04:00 +6°C° 0 mm 2 mps 672 mmHg 56%
    05:00 +6°C° 0 mm 2 mps 672 mmHg 53%
    06:00 +8°C° 0 mm 2 mps 673 mmHg 47%
    07:00 +10°C° 0 mm 2 mps 673 mmHg 40%
    08:00 +13°C° 0 mm 2 mps 673 mmHg 32%
    09:00 +15°C° 0 mm 2 mps 674 mmHg 24%
    10:00 +17°C° 0 mm 2 mps 674 mmHg 22%
    11:00 +18°C° 0 mm 2 mps 674 mmHg 19%
    12:00 +19°C° 0 mm 2 mps 674 mmHg 16%
    13:00 +20°C° 0 mm 2 mps 674 mmHg 17%
    14:00 +20°C° 0 mm 2 mps 673 mmHg 17%
    15:00 +20°C° 0 mm 3 mps 673 mmHg 17%
    16:00 +18°C° 0 mm 2 mps 672 mmHg 21%
    17:00 +17°C° 0 mm 2 mps 672 mmHg 25%
    18:00 +15°C° 0 mm 2 mps 671 mmHg 30%
    19:00 +13°C° 0 mm 2 mps 671 mmHg 33%
    20:00 +12°C° 0 mm 1 mps 671 mmHg 37%
    21:00 +11°C° 0 mm 1 mps 671 mmHg 41%
    22:00 +10°C° 0 mm 1 mps 671 mmHg 41%
    23:00 +10°C° 0 mm 1 mps 671 mmHg 41%

    Tomorrow, 24 April, Monday

    Time Temperature Precipitation Wind Pressure Humidity
    00:00 +10°C° 0 mm 1 mps 670 mmHg 41%
    01:00 +9°C° 0 mm 1 mps 670 mmHg 41%
    02:00 +9°C° 0 mm 1 mps 670 mmHg 41%
    03:00 +9°C° 0 mm 1 mps 669 mmHg 41%
    04:00 +10°C° 0 mm 1 mps 670 mmHg 40%
    05:00 +11°C° 0 mm 1 mps 670 mmHg 39%
    06:00 +12°C° 0 mm 1 mps 670 mmHg 39%
    07:00 +14°C° 0 mm 1 mps 671 mmHg 33%
    08:00 +18°C° 0 mm 1 mps 672 mmHg 27%
    09:00 +20°C° 0 mm 1 mps 673 mmHg 21%
    10:00 +22°C° 0 mm 1 mps 673 mmHg 21%
    11:00 +23°C° 0 mm 1 mps 673 mmHg 20%
    12:00 +24°C° 0 mm 1 mps 673 mmHg 19%
    13:00 +25°C° 0 mm 2 mps 672 mmHg 19%
    14:00 +25°C° 0 mm 2 mps 672 mmHg 19%
    15:00 +25°C° 0 mm 2 mps 671 mmHg 19%
    16:00 +23°C° 0 mm 2 mps 671 mmHg 24%
    17:00 +20°C° 0 mm 2 mps 670 mmHg 28%
    18:00 +18°C° 0 mm 2 mps 670 mmHg 33%
    19:00 +18°C° 0 mm 1 mps 669 mmHg 40%
    20:00 +15°C° 0 mm 1 mps 669 mmHg 46%
    21:00 +12°C° 0 mm 0 mps 669 mmHg 53%
    22:00 +12°C° 0 mm 0 mps 669 mmHg 54%
    23:00 +12°C° 0 mm 1 mps 669 mmHg 54%

    Day after tomorrow, 25 April, Tuesday

    Time Temperature Precipitation Wind Pressure Humidity
    00:00 +12°C° 0 mm 1 mps 668 mmHg 55%
    01:00 +12°C° 0 mm 1 mps 668 mmHg 53%
    02:00 +12°C° 0 mm 1 mps 668 mmHg 51%
    03:00 +11°C° 0 mm 1 mps 667 mmHg 50%
    04:00 +12°C° 0 mm 1 mps 668 mmHg 47%
    05:00 +13°C° 0 mm 1 mps 668 mmHg 45%
    06:00 +14°C° 0 mm 1 mps 668 mmHg 43%
    07:00 +18°C° 0 mm 1 mps 669 mmHg 36%
    08:00 +20°C° 0 mm 1 mps 670 mmHg 29%
    09:00 +23°C° 0 mm 1 mps 670 mmHg 22%
    10:00 +24°C° 0 mm 1 mps 670 mmHg 21%
    11:00 +25°C° 0 mm 1 mps 670 mmHg 20%
    12:00 +26°C° 0 mm 2 mps 670 mmHg 19%
    13:00 +26°C° 0 mm 2 mps 669 mmHg 19%
    14:00 +26°C° 0 mm 2 mps 669 mmHg 19%
    15:00 +26°C° 0 mm 3 mps 668 mmHg 19%
    16:00 +24°C° 0 mm 3 mps 668 mmHg 23%
    17:00 +22°C° 0 mm 3 mps 668 mmHg 27%
    18:00 +20°C° 0 mm 2 mps 667 mmHg 31%
    19:00 +19°C° 0 mm 2 mps 667 mmHg 34%
    20:00 +17°C° 0 mm 2 mps 667 mmHg 37%
    21:00 +16°C° 0 mm 2 mps 667 mmHg 39%
    22:00 +16°C° 0 mm 2 mps 667 mmHg 38%
    23:00 +15°C° 0 mm 2 mps 667 mmHg 37%

    26 April, Wednesday

    Time Temperature Precipitation Wind Pressure Humidity
    00:00 +15°C° 0 mm 2 mps 667 mmHg 36%
    01:00 +14°C° 0 mm 2 mps 667 mmHg 38%
    02:00 +14°C° 0 mm 2 mps 666 mmHg 39%
    03:00 +13°C° 0 mm 2 mps 666 mmHg 41%
    04:00 +14°C° 0 mm 2 mps 666 mmHg 41%
    05:00 +15°C° 0 mm 2 mps 666 mmHg 42%
    06:00 +15°C° 0 mm 2 mps 667 mmHg 43%
    07:00 +18°C° 0 mm 3 mps 667 mmHg 38%
    08:00 +20°C° 0 mm 3 mps 668 mmHg 34%
    09:00 +23°C° 0 mm 4 mps 669 mmHg 29%
    10:00 +25°C° 0 mm 5 mps 669 mmHg 28%
    11:00 +25°C° 0 mm 5 mps 669 mmHg 27%
    12:00 +26°C° 0 mm 6 mps 669 mmHg 26%
    13:00 +26°C° 0 mm 6 mps 669 mmHg 26%
    14:00 +26°C° 0 mm 6 mps 668 mmHg 26%
    15:00 +26°C° 0 mm 6 mps 668 mmHg 27%
    16:00 +23°C° 0.1 mm 5 mps 668 mmHg 32%
    17:00 +22°C° 0.1 mm 4 mps 667 mmHg 37%
    18:00 +20°C° 0.1 mm 4 mps 667 mmHg 42%
    19:00 +19°C° 0.5 mm 3 mps 667 mmHg 49%
    20:00 +18°C° 0.5 mm 3 mps 668 mmHg 57%
    21:00 +17°C° 0.5 mm 2 mps 668 mmHg 65%
    22:00 +16°C° 0.6 mm 2 mps 668 mmHg 67%
    23:00 +16°C° 0.6 mm 2 mps 667 mmHg 69%

    27 April, Thursday

    Time Temperature Precipitation Wind Pressure Humidity
    00:00 +16°C° 0.6 mm 2 mps 667 mmHg 72%
    01:00 +16°C° 0.4 mm 2 mps 667 mmHg 72%
    02:00 +14°C° 0.4 mm 3 mps 667 mmHg 73%
    03:00 +14°C° 0.4 mm 3 mps 666 mmHg 73%
    04:00 +14°C° 0.3 mm 3 mps 667 mmHg 72%
    05:00 +16°C° 0.3 mm 2 mps 667 mmHg 70%
    06:00 +16°C° 0.3 mm 2 mps 667 mmHg 68%
    07:00 +18°C° 0 mm 2 mps 668 mmHg 60%
    08:00 +19°C° 0 mm 3 mps 668 mmHg 51%
    09:00 +21°C° 0 mm 3 mps 669 mmHg 43%
    10:00 +22°C° 0.4 mm 3 mps 669 mmHg 41%
    11:00 +23°C° 0.4 mm 4 mps 669 mmHg 39%
    12:00 +25°C° 0.4 mm 4 mps 669 mmHg 37%
    13:00 +23°C° 0.7 mm 4 mps 669 mmHg 40%
    14:00 +22°C° 0.7 mm 4 mps 668 mmHg 43%
    15:00 +22°C° 0.7 mm 4 mps 668 mmHg 46%
    16:00 +20°C° 0.6 mm 4 mps 668 mmHg 54%
    17:00 +18°C° 0.6 mm 4 mps 668 mmHg 61%
    18:00 +17°C° 0.6 mm 3 mps 668 mmHg 69%
    19:00 +15°C° 0.2 mm 4 mps 668 mmHg 74%
    20:00 +14°C° 0.2 mm 4 mps 668 mmHg 79%
    21:00 +13°C° 0.2 mm 4 mps 669 mmHg 83%
    22:00 +12°C° 0.6 mm 4 mps 668 mmHg 84%
    23:00 +12°C° 0.6 mm 4 mps 668 mmHg 84%

    28 April, Friday

    Time Temperature Precipitation Wind Pressure Humidity
    00:00 +11°C° 0.6 mm 4 mps 668 mmHg 84%
    01:00 +11°C° 0.3 mm 4 mps 668 mmHg 85%
    02:00 +11°C° 0.3 mm 3 mps 668 mmHg 85%
    03:00 +10°C° 0.3 mm 3 mps 668 mmHg 85%
    04:00 +10°C° 0.1 mm 3 mps 668 mmHg 84%
    05:00 +10°C° 0.1 mm 3 mps 668 mmHg 84%
    06:00 +10°C° 0.1 mm 3 mps 669 mmHg 83%
    07:00 +11°C° 0 mm 3 mps 669 mmHg 78%
    08:00 +12°C° 0 mm 3 mps 670 mmHg 74%
    09:00 +12°C° 0 mm 3 mps 670 mmHg 70%
    10:00 +13°C° 0 mm 3 mps 670 mmHg 67%
    11:00 +13°C° 0 mm 3 mps 670 mmHg 65%
    12:00 +14°C° 0 mm 4 mps 670 mmHg 62%
    13:00 +14°C° 0 mm 4 mps 670 mmHg 62%
    14:00 +13°C° 0 mm 4 mps 670 mmHg 62%
    15:00 +13°C° 0 mm 4 mps 669 mmHg 63%
    16:00 +12°C° 0 mm 4 mps 669 mmHg 65%
    17:00 +11°C° 0 mm 4 mps 670 mmHg 67%
    18:00 +10°C° 0 mm 4 mps 670 mmHg 69%
    19:00 +10°C° 0 mm 4 mps 670 mmHg 71%
    20:00 +8°C° 0 mm 4 mps 670 mmHg 74%
    21:00 +7°C° 0 mm 4 mps 671 mmHg 76%
    22:00 +7°C° 0 mm 3 mps 671 mmHg 77%
    23:00 +7°C° 0 mm 3 mps 670 mmHg 78%
    Show more